Location: Waco, TX
(31.5480°N, 97.1670°W)
Time: 16:03:28
(UTC-06:00)

ISS - Pass Details

Date: 02 February 2021
Orbit: 417 x 422 km, 51.6° (Epoch: 07 March)

Event Time Altitude Azimuth Distance (km) Brightness Sun altitude
Rises 20:30:25 0° 317° (NW) 2,371 0.6 -31.3°
Enters shadow 20:31:34 - 318° (NW) 1,899 0.1 -31.5°
Reaches altitude 10° 20:32:32 10° 319° (NW) 1,504 - -31.7°
Maximum altitude 20:35:54 74° 45° (NE) 440 - -32.5°
Drops below altitude 10° 20:39:15 10° 130° (SE) 1,497 - -33.2°
Sets 20:41:21 0° 133° (SE) 2,357 - -33.6°
